Time,TemperatureF,DewpointF,PressureIn,WindDirection,WindDirectionDegrees,WindSpeedMPH,WindSpeedGustMPH,Humidity,HourlyPrecipIn,Conditions,Clouds,dailyrainin,SoftwareType,DateUTC
2014-10-25 00:04:00,44.9,25.8,29.85,North,0,6.7,6.7,47,0.00,,,0.00,WUHU216HW,2014-10-25 06:04:00,
2014-10-25 00:09:00,44.6,27.1,29.85,NNE,23,6.7,6.7,50,0.00,,,0.00,WUHU216HW,2014-10-25 06:09:00,
2014-10-25 00:15:00,44.6,27.1,29.85,NNE,23,7.1,8.0,50,0.00,,,0.00,WUHU216HW,2014-10-25 06:15:00,
2014-10-25 00:20:00,44.4,26.9,29.85,NNE,23,0.0,8.0,50,0.00,,,0.00,WUHU216HW,2014-10-25 06:20:00,
2014-10-25 00:25:00,44.4,26.9,29.85,NNE,23,9.8,9.8,50,0.00,,,0.00,WUHU216HW,2014-10-25 06:25:00,
2014-10-25 00:30:00,44.2,27.2,29.85,NNE,23,6.0,9.8,51,0.00,,,0.00,WUHU216HW,2014-10-25 06:30:00,
2014-10-25 00:35:00,44.2,27.6,29.85,NNE,23,3.8,7.3,52,0.00,,,0.00,WUHU216HW,2014-10-25 06:35:00,
2014-10-25 00:40:00,44.4,27.8,29.85,NNE,23,1.7,8.5,52,0.00,,,0.00,WUHU216HW,2014-10-25 06:40:00,
2014-10-25 00:45:00,44.2,27.6,29.85,NNE,23,6.0,8.5,52,0.00,,,0.00,WUHU216HW,2014-10-25 06:45:00,
2014-10-25 00:50:00,44.0,27.5,29.85,NNE,23,2.9,6.0,52,0.00,,,0.00,WUHU216HW,2014-10-25 06:50:00,
2014-10-25 00:55:00,43.8,27.3,29.85,NNE,23,0.0,6.0,52,0.00,,,0.00,WUHU216HW,2014-10-25 06:55:00,
2014-10-25 01:00:00,43.7,27.6,29.85,NNE,23,6.4,6.4,53,0.00,,,0.00,WUHU216HW,2014-10-25 07:00:00,
2014-10-25 01:15:00,44.0,27.9,29.85,NNE,23,9.1,9.1,53,0.00,,,0.00,WUHU216HW,2014-10-25 07:15:00,
2014-10-25 01:20:00,44.0,27.9,29.85,NNE,23,6.7,9.1,53,0.00,,,0.00,WUHU216HW,2014-10-25 07:20:00,
2014-10-25 01:25:00,43.8,28.7,29.85,NNE,23,4.0,7.6,55,0.00,,,0.00,WUHU216HW,2014-10-25 07:25:00,
2014-10-25 01:30:00,43.8,28.2,29.85,NNE,23,2.9,6.7,54,0.00,,,0.00,WUHU216HW,2014-10-25 07:30:00,
2014-10-25 01:35:00,44.0,28.4,29.85,NNE,23,3.8,6.0,54,0.00,,,0.00,WUHU216HW,2014-10-25 07:35:00,
2014-10-25 01:40:00,44.0,28.4,29.85,NNE,23,6.2,6.2,54,0.00,,,0.00,WUHU216HW,2014-10-25 07:40:00,
2014-10-25 01:45:00,44.2,28.1,29.86,NNE,23,1.5,6.2,53,0.00,,,0.00,WUHU216HW,2014-10-25 07:45:00,
2014-10-25 01:50:00,44.4,28.3,29.85,NNE,23,2.6,6.2,53,0.00,,,0.00,WUHU216HW,2014-10-25 07:50:00,
2014-10-25 01:55:00,44.4,28.3,29.85,NNE,23,0.0,2.9,53,0.00,,,0.00,WUHU216HW,2014-10-25 07:55:00,
2014-10-25 02:00:00,44.6,28.4,29.85,NNE,23,7.3,7.3,53,0.00,,,0.00,WUHU216HW,2014-10-25 08:00:00,
2014-10-25 02:15:00,44.4,28.3,29.86,NNE,23,0.0,7.3,53,0.00,,,0.00,WUHU216HW,2014-10-25 08:15:00,
2014-10-25 02:20:00,43.5,27.0,29.87,NNE,23,0.0,7.3,52,0.00,,,0.00,WUHU216HW,2014-10-25 08:20:00,
2014-10-25 02:25:00,42.0,25.6,29.86,NNE,23,0.0,0.0,52,0.00,,,0.00,WUHU216HW,2014-10-25 08:25:00,
2014-10-25 02:30:00,40.8,24.8,29.86,NNE,23,0.0,0.0,53,0.00,,,0.00,WUHU216HW,2014-10-25 08:30:00,
2014-10-25 02:35:00,39.9,24.9,29.86,NNE,23,0.0,0.0,55,0.00,,,0.00,WUHU216HW,2014-10-25 08:35:00,
2014-10-25 02:40:00,38.8,23.9,29.86,NNE,23,0.0,0.0,55,0.00,,,0.00,WUHU216HW,2014-10-25 08:40:00,
2014-10-25 02:45:00,38.3,23.8,29.86,NNE,23,0.0,0.0,56,0.00,,,0.00,WUHU216HW,2014-10-25 08:45:00,
2014-10-25 02:50:00,37.9,24.4,29.86,NNE,23,0.0,0.0,58,0.00,,,0.00,WUHU216HW,2014-10-25 08:50:00,
2014-10-25 02:55:00,37.9,25.2,29.86,NNE,23,0.0,0.0,60,0.00,,,0.00,WUHU216HW,2014-10-25 08:55:00,
2014-10-25 03:00:00,38.4,26.1,29.86,NNE,23,0.0,0.0,61,0.00,,,0.00,WUHU216HW,2014-10-25 09:00:00,
2014-10-25 03:15:00,38.3,25.9,29.86,NNE,23,0.0,0.0,61,0.00,,,0.00,WUHU216HW,2014-10-25 09:15:00,
2014-10-25 03:20:00,38.1,26.2,29.87,NNE,23,0.0,0.0,62,0.00,,,0.00,WUHU216HW,2014-10-25 09:20:00,
2014-10-25 03:25:00,37.9,26.0,29.86,NNE,23,0.0,0.0,62,0.00,,,0.00,WUHU216HW,2014-10-25 09:25:00,
2014-10-25 03:30:00,37.9,26.4,29.86,NNE,23,0.0,0.0,63,0.00,,,0.00,WUHU216HW,2014-10-25 09:30:00,
2014-10-25 03:35:00,37.9,26.4,29.86,NNE,23,0.0,0.0,63,0.00,,,0.00,WUHU216HW,2014-10-25 09:35:00,
2014-10-25 03:40:00,37.4,25.5,29.86,NNE,23,0.0,0.0,62,0.00,,,0.00,WUHU216HW,2014-10-25 09:40:00,
2014-10-25 03:45:00,37.0,25.5,29.87,NNE,23,0.0,0.0,63,0.00,,,0.00,WUHU216HW,2014-10-25 09:45:00,
2014-10-25 03:50:00,36.8,25.0,29.86,NNE,23,0.0,0.0,63,0.00,,,0.00,WUHU216HW,2014-10-25 09:50:00,
2014-10-25 03:55:00,36.3,24.9,29.86,NNE,23,0.0,0.0,63,0.00,,,0.00,WUHU216HW,2014-10-25 09:55:00,
2014-10-25 04:00:00,35.9,24.9,29.86,NNE,23,0.0,0.0,64,0.00,,,0.00,WUHU216HW,2014-10-25 10:00:00,
2014-10-25 04:11:00,35.7,25.5,29.86,NNE,23,0.0,0.0,66,0.00,,,0.00,WUHU216HW,2014-10-25 10:11:00,
2014-10-25 04:16:00,35.7,25.5,29.86,NNE,23,0.0,0.0,66,0.00,,,0.00,WUHU216HW,2014-10-25 10:16:00,
2014-10-25 04:21:00,35.7,25.1,29.86,NNE,23,0.0,0.0,65,0.00,,,0.00,WUHU216HW,2014-10-25 10:21:00,
2014-10-25 04:26:00,35.4,24.8,29.86,NNE,23,0.0,0.0,65,0.00,,,0.00,WUHU216HW,2014-10-25 10:26:00,
2014-10-25 04:31:00,34.8,24.2,29.87,NNE,23,0.0,0.0,65,0.00,,,0.00,WUHU216HW,2014-10-25 10:31:00,
2014-10-25 04:36:00,34.5,23.9,29.86,NNE,23,0.0,0.0,65,0.00,,,0.00,WUHU216HW,2014-10-25 10:36:00,
2014-10-25 04:41:00,34.3,23.7,29.86,NNE,23,0.0,0.0,65,0.00,,,0.00,WUHU216HW,2014-10-25 10:41:00,
2014-10-25 04:46:00,34.1,23.9,29.87,NNE,23,0.0,0.0,66,0.00,,,0.00,WUHU216HW,2014-10-25 10:46:00,
2014-10-25 04:51:00,33.9,23.7,29.86,NNE,23,0.0,0.0,66,0.00,,,0.00,WUHU216HW,2014-10-25 10:51:00,
2014-10-25 04:56:00,33.6,23.3,29.86,NNE,23,0.0,0.0,66,0.00,,,0.00,WUHU216HW,2014-10-25 10:56:00,
2014-10-25 05:01:00,33.6,23.7,29.86,NNE,23,0.0,0.0,67,0.00,,,0.00,WUHU216HW,2014-10-25 11:01:00,
2014-10-25 05:06:00,33.2,23.4,29.86,NNE,23,0.0,0.0,67,0.00,,,0.00,WUHU216HW,2014-10-25 11:06:00,
2014-10-25 05:11:00,32.9,23.0,29.86,NNE,23,0.0,0.0,67,0.00,,,0.00,WUHU216HW,2014-10-25 11:11:00,
2014-10-25 05:16:00,32.7,23.2,29.86,NNE,23,0.0,0.0,68,0.00,,,0.00,WUHU216HW,2014-10-25 11:16:00,
2014-10-25 05:21:00,32.9,23.4,29.86,NNE,23,0.0,0.0,68,0.00,,,0.00,WUHU216HW,2014-10-25 11:21:00,
2014-10-25 05:26:00,32.7,23.2,29.86,NNE,23,0.0,0.0,68,0.00,,,0.00,WUHU216HW,2014-10-25 11:26:00,
2014-10-25 05:31:00,32.5,23.1,29.85,NNE,23,0.0,0.0,68,0.00,,,0.00,WUHU216HW,2014-10-25 11:31:00,
2014-10-25 05:36:00,32.3,23.3,29.86,NNE,23,0.0,0.0,69,0.00,,,0.00,WUHU216HW,2014-10-25 11:36:00,
2014-10-25 05:41:00,32.5,23.4,29.85,NNE,23,0.0,0.0,69,0.00,,,0.00,WUHU216HW,2014-10-25 11:41:00,
2014-10-25 05:46:00,32.7,23.6,29.86,NNE,23,0.0,0.0,69,0.00,,,0.00,WUHU216HW,2014-10-25 11:46:00,
2014-10-25 05:51:00,32.7,24.0,29.86,NNE,23,0.0,0.0,70,0.00,,,0.00,WUHU216HW,2014-10-25 11:51:00,
2014-10-25 05:56:00,32.9,24.4,29.87,NNE,23,0.0,0.0,71,0.00,,,0.00,WUHU216HW,2014-10-25 11:56:00,
2014-10-25 06:01:00,33.4,24.9,29.87,NNE,23,0.0,0.0,71,0.00,,,0.00,WUHU216HW,2014-10-25 12:01:00,
2014-10-25 06:06:00,33.4,24.9,29.87,NNE,23,0.0,0.0,71,0.00,,,0.00,WUHU216HW,2014-10-25 12:06:00,
2014-10-25 06:11:00,33.4,24.9,29.87,NNE,23,0.0,0.0,71,0.00,,,0.00,WUHU216HW,2014-10-25 12:11:00,
2014-10-25 06:16:00,33.4,24.9,29.87,NNE,23,0.0,0.0,71,0.00,,,0.00,WUHU216HW,2014-10-25 12:16:00,
2014-10-25 06:21:00,33.6,25.1,29.87,NNE,23,0.0,0.0,71,0.00,,,0.00,WUHU216HW,2014-10-25 12:21:00,